Погода в Пезаро

Италия     43°54′45″N   12°54′19″E
темп.,
°C
ветер,
м/с
пор.,
м/с
влажн.,
%
обл.,
%
осадки,
мм/ч
давл.,
гПа
погр.,
м
19 сентября, вс
вс1923:00+23ююв457796 0.4 1012328
02:00+22юз2273100 1.2 1012186
05:00+22зюз346760 0.0 1012233
08:00+21зюз3571100 0.0 1011188
11:00+24ююз34635 0.0 1011138
14:00+25вюв556884 0.0 1010161
17:00+24всв4477100 1.4 1008254
20:00+21с44840 4.4 1009215
20 сентября, пн
пн2023:00+22зюз446667 0.8 1010259
02:00+22юз8106046 1.0 1011738
05:00+21юз9126396 0.0 1010908
08:00+20зсз667095 0.1 1012665
11:00+20сз447384 0.0 1014387
14:00+21сз346868 0.1 1014444
17:00+21ссв446858 0.2 1014469
20:00+21в436942 0.3 1016612
21 сентября, вт
вт2123:00+20в117342 3.2 101886
02:00+20св447338 5.7 1019423
05:00+20св3364100 0.4 1019684
08:00+20св546115 0.4 1020757
11:00+20св5557100 0.0 1022828
14:00+20св555732 0.0 1022794
17:00+21св44553 0.0 1022747
20:00+21св34502 0.0 1023763
22 сентября, ср
ср2223:00+22св33490 0.0 10231100
02:00+21св43530 0.0 1023945
05:00+21св34530 0.0 10211057
08:00+21с23560 0.0 1021747
11:00+20ссз446299 0.0 1021888
14:00+21с3362100 0.0 1020745
17:00+20св44575 0.0 1019755
20:00+21всв55560 0.0 1019838
23 сентября, чт
чт2323:00+21св33505 0.0 1019951
02:00+20юв345815 0.0 1018622
05:00+20всв335924 0.0 1018819
08:00+19всв32605 0.0 1018828
11:00+19св43565 0.0 1018768
14:00+20всв44555 0.0 1018684
17:00+20всв555681 0.0 1016551
20:00+20юв4454100 0.0 1016595